[[{"header":{"parameterUnit":"m.s-1","parameterCategory":1,"la1":30.2991,"la2":30.254,"lo1":-89.0895,"lo2":-89.0444,"dy":0.0017,"dx":0.0017,"nx":28,"ny":28,"refTime":"2025-06-18T09:00:00:Z","depth":0,"parameterNumber":2,"parameterNumberName":"U-component_of_WINDS"},"data":[0,0,0,0,0,0,0,0,0,0,0,0,0,0,0,0,0,0,0,0,0,0,0,0,0,0,0,0,0,0,0,0,0,0,0,0,0,0,0,0,0,0,0,0,0,0,0,0,0,0,0,0,0,0,0,0,0,0,-0.7062,-0.7062,0,-0.7078,-0.7078,-0.7078,-0.7088,-0.7088,-0.7088,-0.7088,-0.7105,-0.7105,-0.7106,0,0,0,0,0,0,0,0,0,0,0,0,0,-0.7041,-0.7041,-0.7062,-0.7062,-0.7062,-0.7078,-0.7078,-0.7078,-0.7088,-0.7088,-0.7088,-0.7088,-0.7105,-0.7105,-0.7106,0,0,0,0,0,0,0,0,0,0,0,0,0,-0.7053,-0.7041,-0.7062,-0.7069,-0.707,-0.7078,-0.7078,-0.7079,-0.7088,-0.7088,-0.7088,-0.7088,-0.7105,-0.7105,-0.7106,-0.7108,0,0,-0.7108,-0.7108,0,0,0,0,0,0,0,0,-0.7052,-0.7054,-0.7068,-0.7069,-0.7069,-0.7081,-0.7077,-0.7089,-0.7088,-0.7081,-0.7088,-0.7088,-0.7097,-0.7098,-0.7101,-0.7109,-0.711,-0.7108,-0.7108,-0.7108,-0.7109,0,0,0,0,0,0,0,-0.7051,-0.7053,-0.7068,-0.7068,-0.7069,-0.7072,-0.7074,-0.7079,-0.7088,-0.7082,-0.7082,-0.7084,-0.7097,-0.71,-0.7102,-0.711,-0.7108,-0.7108,-0.7109,-0.7109,-0.7123,-0.7123,0,0,0,0,0,0,-0.7049,-0.7052,-0.7068,-0.7069,-0.7061,-0.7072,-0.7074,-0.7077,-0.7088,-0.709,-0.7084,-0.7084,-0.7099,-0.7101,-0.7102,-0.7107,-0.7108,-0.7109,-0.7109,-0.7123,-0.7123,-0.7123,0,0,0,0,0,0,-0.7049,-0.7051,-0.7067,-0.7061,-0.7063,-0.7072,-0.7076,-0.7078,-0.7081,-0.709,-0.7092,-0.7085,-0.7099,-0.7101,-0.7107,-0.7107,-0.7109,-0.711,-0.7123,-0.7123,-0.7123,-0.7115,0,0,0,0,0,0,-0.7048,-0.705,-0.7051,-0.7061,-0.7063,-0.7071,-0.7076,-0.7078,-0.7082,-0.7082,-0.7092,-0.7094,-0.71,-0.7106,-0.7108,-0.7108,-0.711,-0.7123,-0.7123,-0.7123,-0.7115,-0.7115,-0.7114,0,0,0,0,0,-0.7047,-0.7048,-0.7051,-0.7053,-0.7064,-0.7071,-0.7073,-0.708,-0.7081,-0.7083,-0.7089,-0.7093,-0.7107,-0.7107,-0.7108,-0.7109,-0.7123,-0.7123,-0.7123,-0.7116,-0.7115,-0.7114,0,0,0,0,0,0,-0.7038,-0.7049,-0.7053,-0.7056,-0.7063,-0.7073,-0.7074,-0.7079,-0.7085,-0.7085,-0.7094,-0.7096,-0.7101,-0.7106,-0.7105,-0.7113,-0.7115,-0.7116,-0.7109,-0.7109,-0.7108,-0.7107,-0.7111,0,0,0,0,0,-0.7036,-0.7041,-0.7051,-0.7053,-0.7056,-0.7065,-0.7068,-0.7073,-0.708,-0.7082,-0.7089,-0.7096,-0.7102,-0.7106,-0.7112,-0.7116,-0.7119,-0.7118,-0.7117,-0.7117,-0.7117,-0.7121,-0.7121,-0.7123,-0.7123,-0.7123,0,0,-0.7033,-0.704,-0.7042,-0.7051,-0.7057,-0.7062,-0.7067,-0.7071,-0.7075,-0.7083,-0.7089,-0.7095,-0.7103,-0.7108,-0.7111,-0.7112,-0.7117,-0.7117,-0.7117,-0.7117,-0.7121,-0.7121,-0.7121,-0.7123,-0.7123,-0.7123,0,0,-0.7029,-0.7035,-0.7038,-0.7043,-0.7052,-0.7058,-0.7058,-0.7068,-0.7072,-0.7078,-0.7084,-0.709,-0.7099,-0.7105,-0.711,-0.711,-0.7114,-0.7112,-0.7109,-0.7113,-0.7112,-0.7112,-0.7113,-0.7113,-0.7112,-0.7112,-0.7112,0,-0.7024,-0.7031,-0.7039,-0.7043,-0.7048,-0.7055,-0.7059,-0.7064,-0.7074,-0.7077,-0.7079,-0.7092,-0.7098,-0.7106,-0.7106,-0.7109,-0.7111,-0.711,-0.7112,-0.7112,-0.7112,-0.7113,-0.7113,-0.7111,-0.7112,-0.7112,-0.7112,0,-0.7025,-0.703,-0.7031,-0.7041,-0.7045,-0.7049,-0.7058,-0.7062,-0.7067,-0.7073,-0.708,-0.7088,-0.7096,-0.7098,-0.7102,-0.7106,-0.7107,-0.711,-0.7113,-0.7111,-0.7112,-0.7112,-0.7111,-0.7111,-0.7111,-0.7111,0,0,-0.7015,-0.7029,-0.703,-0.7035,-0.7045,-0.7049,-0.7054,-0.7062,-0.7066,-0.7073,-0.7078,-0.7086,-0.709,-0.7095,-0.71,-0.7103,-0.7104,-0.7106,-0.7107,-0.7106,-0.711,-0.7107,-0.7107,-0.7107,-0.7107,-0.7107,-0.7109,0,-0.7013,-0.7021,-0.7029,-0.7035,-0.704,-0.7049,-0.7053,-0.706,-0.7066,-0.7072,-0.7079,-0.7085,-0.7089,-0.7092,-0.7096,-0.7103,-0.7105,-0.7103,-0.7112,-0.7113,-0.711,-0.7108,-0.7105,-0.7106,-0.711,-0.711,-0.711,0,-0.7011,-0.7018,-0.7025,-0.7036,-0.7038,-0.7042,-0.7051,-0.7056,-0.7065,-0.7069,-0.7075,-0.7081,-0.7088,-0.709,-0.71,-0.7098,-0.7103,-0.7107,-0.7108,-0.7109,-0.7111,-0.7109,-0.7107,-0.7107,-0.711,-0.711,-0.711,0,-0.7004,-0.7015,-0.7021,-0.7025,-0.7037,-0.704,-0.7045,-0.7054,-0.7059,-0.7067,-0.707,-0.7079,-0.7083,-0.709,-0.7099,-0.71,-0.7108,-0.7111,-0.7112,-0.7112,-0.7113,-0.7113,-0.7112,-0.7116,-0.7116,-0.7116,-0.7116,0,-0.7001,-0.7005,-0.7018,-0.7021,-0.7026,-0.7035,-0.704,-0.7046,-0.7055,-0.706,-0.7068,-0.7073,-0.7084,-0.709,-0.7097,-0.7105,-0.7106,-0.7111,-0.7112,-0.711,-0.7109,-0.7113,-0.7113,-0.7116,-0.7116,-0.7116,-0.7116,0,-0.6993,-0.7002,-0.7009,-0.702,-0.7024,-0.7027,-0.7037,-0.7041,-0.7048,-0.7055,-0.7057,-0.7068,-0.7077,-0.7086,-0.7098,-0.7102,-0.7109,-0.7112,-0.7106,-0.7107,-0.7108,-0.7108,-0.7109,-0.711,-0.7113,-0.7113,-0.7113,0,-0.6991,-0.6994,-0.7006,-0.701,-0.7016,-0.7022,-0.7027,-0.7037,-0.7042,-0.7053,-0.7056,-0.7065,-0.7073,-0.7086,-0.7095,-0.7105,-0.7108,-0.7107,-0.7109,-0.7107,-0.7108,-0.7108,-0.7109,-0.7107,-0.7107,-0.7107,-0.7106,0,-0.6985,-0.699,-0.6997,-0.7005,-0.7011,-0.7018,-0.7026,-0.7029,-0.7041,-0.7046,-0.7055,-0.7061,-0.7073,-0.7082,-0.7093,-0.7099,-0.7105,-0.7106,-0.7107,-0.7104,-0.7101,-0.7104,-0.7105,-0.7106,-0.7106,-0.7106,-0.7106,-0.7106,-0.698,-0.6984,-0.6994,-0.7001,-0.7008,-0.7016,-0.702,-0.7028,-0.7035,-0.7046,-0.7051,-0.706,-0.707,-0.7085,-0.7092,-0.7099,-0.7101,-0.7102,-0.7103,-0.7103,-0.7102,-0.71,-0.7101,-0.7101,-0.7101,-0.7101,-0.7101,0,-0.6976,-0.6983,-0.699,-0.7001,-0.7007,-0.7012,-0.7021,-0.7026,-0.7034,-0.7043,-0.705,-0.7061,-0.707,-0.7081,-0.7091,-0.7095,-0.7098,-0.7098,-0.7097,-0.7099,-0.71,-0.7098,-0.7095,-0.7095,-0.7095,-0.7095,-0.7095,-0.7095,-0.6974,-0.6981,-0.6987,-0.6998,-0.7004,-0.7013,-0.7018,-0.7025,-0.7032,-0.7044,-0.7051,-0.7058,-0.7068,-0.708,-0.7089,-0.7092,-0.7095,-0.7094,-0.7098,-0.7098,-0.7099,-0.7099,-0.7098,-0.7094,-0.7094,-0.7096,-0.7096,-0.7096]},{"header":{"parameterUnit":"m.s-1","parameterCategory":1,"la1":30.2991,"la2":30.254,"lo1":-89.0895,"lo2":-89.0444,"dy":0.0017,"dx":0.0017,"nx":28,"ny":28,"refTime":"2025-06-18T09:00:00:Z","depth":0,"parameterNumber":3,"parameterNumberName":"V-component_of_WINDS"},"data":[0,0,0,0,0,0,0,0,0,0,0,0,0,0,0,0,0,0,0,0,0,0,0,0,0,0,0,0,0,0,0,0,0,0,0,0,0,0,0,0,0,0,0,0,0,0,0,0,0,0,0,0,0,0,0,0,0,0,4.7384,4.7385,0,4.7457,4.7458,4.7459,4.7461,4.746,4.7459,4.7458,4.7528,4.7531,4.7533,0,0,0,0,0,0,0,0,0,0,0,0,0,4.7241,4.7243,4.7384,4.7385,4.7386,4.7457,4.7458,4.7459,4.7461,4.746,4.7459,4.7458,4.7527,4.753,4.7533,0,0,0,0,0,0,0,0,0,0,0,0,0,4.7307,4.7244,4.7384,4.7395,4.7397,4.7457,4.7458,4.7459,4.7461,4.746,4.7459,4.7458,4.7526,4.753,4.7534,4.7585,0,0,4.7546,4.7548,0,0,0,0,0,0,0,0,4.7303,4.7312,4.7393,4.7395,4.7397,4.7449,4.7433,4.7501,4.7462,4.7437,4.7458,4.7457,4.7502,4.7508,4.7525,4.7588,4.7591,4.7546,4.7549,4.7551,4.7552,0,0,0,0,0,0,0,4.7299,4.7309,4.7413,4.7394,4.7396,4.7395,4.7403,4.7446,4.7476,4.7439,4.7439,4.7448,4.7503,4.7521,4.7526,4.7592,4.7546,4.755,4.7552,4.7554,4.7702,4.7703,0,0,0,0,0,0,4.7292,4.7305,4.741,4.7415,4.7346,4.7399,4.7408,4.7433,4.7475,4.7481,4.7449,4.7448,4.7515,4.7522,4.7529,4.7592,4.7551,4.7554,4.7557,4.77,4.7702,4.7704,0,0,0,0,0,0,4.7289,4.7302,4.7407,4.736,4.7374,4.7403,4.7431,4.7435,4.7453,4.7483,4.7488,4.7462,4.7514,4.7523,4.7572,4.7594,4.7556,4.756,4.7698,4.7701,4.7703,4.7718,0,0,0,0,0,0,4.7285,4.7301,4.7321,4.7361,4.7376,4.745,4.7433,4.7438,4.7461,4.746,4.7497,4.7502,4.7514,4.7566,4.7575,4.7599,4.7563,4.7696,4.7699,4.7702,4.7715,4.772,4.7724,0,0,0,0,0,4.728,4.7321,4.7323,4.7335,4.7403,4.7452,4.746,4.7475,4.7463,4.7483,4.7503,4.75,4.759,4.757,4.7582,4.7607,4.7695,4.7699,4.7702,4.7713,4.7719,4.7724,0,0,0,0,0,0,4.7281,4.7327,4.7328,4.7384,4.7414,4.7452,4.7478,4.7481,4.7513,4.7511,4.7526,4.7534,4.7582,4.7599,4.7577,4.7659,4.7641,4.7647,4.7646,4.7652,4.7656,4.7651,4.7566,0,0,0,0,0,4.7289,4.7326,4.7363,4.7408,4.7424,4.7448,4.747,4.7479,4.751,4.7522,4.7545,4.7574,4.7609,4.7631,4.7665,4.7718,4.7726,4.7741,4.7745,4.7749,4.7753,4.7783,4.779,4.7715,4.7715,4.7715,0,0,4.7303,4.7332,4.7355,4.7409,4.7434,4.7471,4.7459,4.7498,4.7526,4.7527,4.7575,4.7593,4.7626,4.7678,4.7701,4.7693,4.7776,4.7753,4.7756,4.7759,4.7787,4.7794,4.7801,4.7717,4.7717,4.7716,0,0,4.7348,4.7374,4.7416,4.7441,4.7479,4.7496,4.7506,4.7543,4.7556,4.7605,4.7607,4.7639,4.7698,4.7722,4.7742,4.7798,4.7797,4.7808,4.7832,4.786,4.7866,4.7871,4.7891,4.7898,4.7813,4.7813,4.7813,0,4.736,4.7418,4.7436,4.7476,4.75,4.7506,4.7547,4.757,4.7616,4.7632,4.7622,4.7698,4.7721,4.7778,4.7792,4.7807,4.7818,4.7804,4.7864,4.787,4.7875,4.7894,4.7901,4.7814,4.7814,4.7814,4.7814,0,4.7432,4.7472,4.75,4.7548,4.7574,4.7614,4.7637,4.7661,4.7668,4.7685,4.7734,4.7762,4.7802,4.7816,4.7822,4.7874,4.7868,4.7861,4.7844,4.7883,4.7901,4.7909,4.7815,4.7815,4.7815,4.7814,0,0,4.7479,4.7537,4.7547,4.7569,4.7612,4.7642,4.7682,4.7723,4.7744,4.7776,4.781,4.7861,4.7856,4.7878,4.7887,4.7912,4.7954,4.7902,4.7903,4.7911,4.8013,4.8018,4.8026,4.7954,4.7956,4.7957,4.8011,0,4.7529,4.7603,4.762,4.7683,4.772,4.7727,4.7762,4.7791,4.7808,4.7841,4.7859,4.7895,4.7885,4.7899,4.7925,4.7944,4.7975,4.794,4.7985,4.7986,4.7976,4.8036,4.8041,4.809,4.8018,4.8019,4.802,0,4.7597,4.7633,4.77,4.774,4.7756,4.7787,4.7827,4.7858,4.7891,4.7902,4.7928,4.7935,4.7975,4.7957,4.8013,4.7989,4.8008,4.802,4.8022,4.8027,4.8005,4.8041,4.8106,4.8113,4.8031,4.803,4.803,0,4.7624,4.769,4.7739,4.7757,4.7804,4.7826,4.7846,4.7879,4.7903,4.7936,4.7952,4.7989,4.8009,4.8037,4.8053,4.8038,4.8108,4.809,4.8117,4.8116,4.8131,4.813,4.8199,4.8143,4.8143,4.8143,4.8143,0,4.7678,4.7719,4.7752,4.7782,4.7828,4.7847,4.7891,4.7911,4.794,4.7973,4.798,4.801,4.803,4.8063,4.8075,4.812,4.8128,4.8137,4.814,4.8137,4.8136,4.8149,4.8146,4.8145,4.8145,4.8144,4.8144,0,4.7717,4.774,4.7794,4.7836,4.7847,4.7879,4.7913,4.7942,4.796,4.8001,4.8012,4.8039,4.8079,4.8098,4.8145,4.8154,4.8204,4.8205,4.8194,4.8195,4.822,4.8218,4.8301,4.8313,4.8249,4.825,4.825,0,4.7749,4.7781,4.7827,4.7851,4.7872,4.791,4.7935,4.7955,4.798,4.8021,4.8045,4.8085,4.8118,4.818,4.8203,4.824,4.8241,4.8268,4.8246,4.8242,4.8241,4.8239,4.8242,4.8271,4.8272,4.8272,4.8273,0,4.7805,4.7816,4.7853,4.7894,4.7925,4.7958,4.799,4.8008,4.8033,4.8061,4.8103,4.8129,4.8179,4.8218,4.8257,4.8275,4.8278,4.8279,4.8287,4.8284,4.8277,4.8281,4.8204,4.8277,4.8277,4.8276,4.8276,4.8276,4.7842,4.7871,4.7908,4.7949,4.7976,4.8006,4.8036,4.8059,4.8094,4.8138,4.8147,4.8191,4.8223,4.8276,4.8296,4.833,4.8323,4.8335,4.8338,4.8341,4.8342,4.8272,4.8336,4.8336,4.8336,4.8336,4.8336,0,4.7898,4.7923,4.796,4.8007,4.8039,4.8041,4.8077,4.8103,4.8143,4.8174,4.8207,4.8255,4.8293,4.832,4.8359,4.838,4.8382,4.839,4.8388,4.8392,4.8345,4.8335,4.8387,4.8387,4.8387,4.8387,4.8387,4.8387,4.7931,4.7981,4.7996,4.8059,4.8083,4.8128,4.8148,4.8176,4.8201,4.8255,4.8288,4.8306,4.8335,4.8376,4.8411,4.8418,4.8431,4.8439,4.8445,4.8401,4.8396,4.839,4.838,4.8442,4.8442,4.849,4.849,4.8491]}]]